Estación meteorológica de Calldetenes (Osona, Plana de Vic)

Consulta los datos en tiempo real de la estación meteorológica de Calldetenes





Hora UTC 06:55
Temperatura 16.9 ºC
Suelo 15 cm 16.3 ºC
Humedad 95.6 %
Presión 1022.6 hPa
Pluja 0.0 mm
Velocidad viento 0.0 km/h
Dirección viento ESE
Radiación solar 184.9 W/m²

Webcam

Datos diarios 2026-09-02



Hora UTC (invierno +1h; verano +2h)
Temperatura (ºC) Humedad (%) Presión (hPa) Velocidad viento (km/h) Precipitación (mm) Radiación solar (W/m²)
Hora UTC Aire Suelo 15 cm Humedad Presión Vel. Dir. Vel. Max Dir. Intent. máx 5 min. Rad. Sol.
00:05 17.8 17.6 89.5 1021.8 4.8 S 4.8 S 0.0 0.1
00:10 17.9 17.5 90.3 1021.8 4.4 S 6.4 SSW 0.0 0.1
00:15 17.9 17.6 88.8 1021.8 2.5 S 4.2 S 0.0 0.1
00:20 17.9 17.5 89.8 1021.8 0.6 S 2.5 S 0.0 0.1
00:25 17.9 17.6 89.7 1021.8 1.4 ESE 2.5 ESE 0.0 0.1
00:30 17.7 17.6 88.3 1021.8 1.4 ENE 2.5 ENE 0.0 0.1
00:35 17.6 17.5 89.8 1021.8 0.5 NW 2.1 NW 0.0 0.1
00:40 17.6 17.4 89.8 1021.8 1.3 NNW 3.9 NNW 0.0 0.1
00:45 17.5 17.4 90.6 1021.9 2.5 N 3.9 N 0.0 0.1
00:50 17.6 17.4 91.0 1021.9 2.3 NNE 3.5 NNE 0.0 0.1
00:55 17.6 17.5 91.0 1021.9 0.2 NNE 1.4 NE 0.0 0.1
01:00 17.7 17.6 90.1 1021.9 0.9 S 4.9 SSW 0.0 0.1
01:05 17.4 17.5 89.4 1021.8 0.0 NNE 0.0 ENE 0.0 0.1
01:10 17.4 17.4 90.0 1021.8 1.7 SE 3.2 SSE 0.0 0.1
01:15 17.0 17.2 89.0 1021.8 0.9 SE 2.5 ESE 0.0 0.1
01:20 16.8 16.9 90.8 1021.8 3.4 SE 4.2 SE 0.0 0.1
01:25 17.0 16.8 92.0 1021.8 3.9 SE 4.9 SE 0.0 0.1
01:30 16.9 16.8 91.0 1021.8 3.7 ESE 5.3 SE 0.0 0.1
01:35 16.7 16.6 91.3 1021.7 2.0 SE 5.3 SE 0.0 0.1
01:40 16.6 16.5 92.2 1021.7 0.0 NNE 0.0 SSE 0.0 0.1
01:45 16.8 16.5 93.6 1021.7 1.8 ESE 5.3 ESE 0.0 0.1
01:50 17.0 16.6 93.4 1021.7 3.6 E 4.9 ESE 0.0 0.1
01:55 16.8 16.7 92.3 1021.8 2.0 ESE 3.5 E 0.0 0.1
02:00 16.8 16.7 92.3 1021.8 1.7 SE 2.8 SE 0.0 0.1
02:05 16.7 16.6 92.4 1021.9 1.9 SE 4.2 SE 0.0 0.1
02:10 16.7 16.5 92.8 1021.9 2.6 SSE 4.2 ESE 0.0 0.1
02:15 16.9 16.5 93.3 1021.7 2.6 SSE 3.5 S 0.0 0.1
02:20 16.6 16.5 90.8 1021.7 0.2 SSE 2.1 SSE 0.0 0.1
02:25 16.5 16.4 92.8 1021.7 2.1 E 3.9 E 0.0 0.1
02:30 16.4 16.4 92.4 1021.7 0.9 ENE 3.2 ENE 0.0 0.1
02:35 16.4 16.3 93.1 1021.8 0.2 SE 2.1 SE 0.0 0.1
02:40 16.6 16.3 93.8 1021.8 1.0 SE 2.1 SE 0.0 0.1
02:45 16.4 16.2 93.1 1021.8 3.1 E 4.6 E 0.0 0.1
02:50 16.4 16.2 93.8 1021.8 3.3 ESE 4.9 ESE 0.0 0.1
02:55 16.3 16.2 93.0 1021.8 3.4 SE 4.9 SE 0.0 0.1
03:00 16.0 16.1 92.3 1021.8 2.6 SE 3.9 SE 0.0 0.1
03:05 16.0 15.9 93.2 1021.8 0.5 SSE 2.5 SE 0.0 0.1
03:10 15.9 15.8 93.4 1021.8 1.0 SSE 2.1 SSE 0.0 0.1
03:15 15.6 15.7 92.9 1021.8 0.2 NE 1.8 NE 0.0 0.1
03:20 15.7 15.6 94.2 1021.8 1.1 SSE 2.1 SE 0.0 0.1
03:25 15.7 15.6 94.2 1021.9 0.5 SSW 2.1 SSW 0.0 0.1
03:30 15.6 15.5 94.4 1021.9 0.2 S 1.4 S 0.0 0.1
03:35 15.5 15.5 94.1 1021.9 0.0 NNE 0.0 S 0.0 0.1
03:40 15.7 15.4 95.2 1021.9 0.3 WSW 2.5 WSW 0.0 0.1
03:45 15.7 15.4 95.2 1021.9 3.2 SW 4.9 SW 0.0 0.1
03:50 16.3 15.6 96.6 1021.9 3.9 S 6.0 SSW 0.0 0.1
03:55 16.3 15.9 94.4 1021.9 2.2 S 4.6 S 0.0 0.1
04:00 16.0 15.8 94.1 1021.9 1.9 SSE 3.2 S 0.0 0.1
04:05 15.9 15.8 94.5 1021.8 1.1 SSE 3.2 SSE 0.0 0.1
04:10 15.5 15.6 93.4 1021.8 0.2 SE 2.5 SE 0.0 0.1
04:15 15.7 15.4 95.0 1021.8 3.2 SE 4.6 ESE 0.0 0.1
04:20 15.5 15.4 93.7 1021.8 2.4 E 3.2 ENE 0.0 0.1
04:25 15.1 15.2 93.9 1021.8 2.7 ENE 3.5 ENE 0.0 0.1
04:30 15.2 15.2 94.8 1021.8 2.0 E 2.8 E 0.0 0.1
04:35 15.3 15.1 94.9 1021.7 3.2 ESE 3.9 ESE 0.0 0.1
04:40 15.2 15.1 94.6 1021.7 1.7 ESE 2.8 ESE 0.0 0.1
04:45 15.2 15.0 95.2 1021.8 2.0 ESE 3.2 ESE 0.0 0.1
04:50 15.1 14.9 95.1 1021.8 1.6 ESE 3.2 ESE 0.0 0.1
04:55 15.0 14.8 95.3 1021.8 2.7 ESE 3.5 ESE 0.0 0.1
05:00 15.1 14.8 95.6 1021.8 2.8 ESE 4.2 ESE 0.0 0.2
05:05 14.9 14.7 95.3 1021.8 1.1 SSE 2.8 SE 0.0 0.5
05:10 14.8 14.7 95.5 1021.8 1.8 SSE 3.5 SSE 0.0 1.1
05:15 14.9 14.6 96.0 1021.8 0.7 SSE 2.8 SSE 0.0 2.1
05:20 14.8 14.6 95.6 1021.8 3.1 ESE 5.6 ESE 0.0 3.4
05:25 15.0 14.7 96.3 1021.9 4.3 ESE 6.0 ESE 0.0 5.2
05:30 15.2 14.7 96.6 1021.9 2.7 SE 6.0 ESE 0.0 7.5
05:35 15.1 14.8 96.1 1021.9 0.1 SE 1.4 SE 0.0 10.0
05:40 15.1 14.8 96.0 1021.9 1.0 WNW 2.1 WNW 0.0 13.0
05:45 15.2 14.9 96.6 1022.1 1.2 NW 2.1 NW 0.0 15.8
05:50 15.3 15.0 96.6 1022.1 1.4 SSE 3.5 SSE 0.0 18.8
05:55 15.3 15.2 96.1 1022.1 0.7 S 2.5 SSW 0.0 21.6
06:00 15.1 15.1 95.9 1022.1 1.3 S 2.1 S 0.0 24.4
06:05 15.3 15.1 96.7 1022.1 0.6 SSW 1.8 SSW 0.0 27.1
06:10 15.8 15.3 97.4 1022.1 0.4 SSW 2.5 SSW 0.0 30.6
06:15 15.9 15.5 97.3 1022.3 1.3 SSW 2.8 S 0.0 34.0
06:20 16.0 15.5 97.1 1022.3 1.3 SE 2.8 SE 0.0 36.8
06:25 16.0 15.6 96.6 1022.4 1.6 ESE 2.8 ESE 0.0 41.7
06:30 16.2 15.7 96.7 1022.4 1.3 ESE 2.5 ESE 0.0 105.8
06:35 16.5 15.8 96.7 1022.4 0.6 ESE 1.8 ESE 0.0 140.5
06:40 16.6 16.0 96.6 1022.4 1.1 ENE 2.1 E 0.0 151.4
06:45 16.8 16.1 96.3 1022.5 0.4 NE 1.8 ENE 0.0 161.4
06:50 16.8 16.2 95.9 1022.5 0.0 ESE 1.1 ESE 0.0 170.8
06:55 16.9 16.3 95.6 1022.6 0.0 ESE 1.1 ESE 0.0 184.9
Máxima 17.9 17.6 97.4 1022.6 4.8 S 6.4 SSW 0.0 184.9
Mínima 14.8 14.6 88.3 1021.7
Total 0.0